KUIPER-00082

导读

KUIPER-00082是美国亚马逊柯伊伯(Project Kuiper)互联网星座计划中的一颗卫星,于2025年7月16日在美国佛罗里达州空军东部试验场发射,和同一批次共计24颗卫星共同入轨。该卫星运行在倾角约51.9°,平均高度约636公里的近地轨道,目前状态为在轨工作,是柯伊伯星座构建全球卫星互联网组网的组成单元。

基本信息
目录编号:
64828
目录名称:
KUIPER-00082
国际标识:
2025-151N
轨道中心:
EARTH
卫星名称:
KUIPER-00082
卫星全名:
KUIPER-00082
卫星状态:
在轨 (已飞行423 天)
发射日期:
2025-07-16 UTC
国别 :
美国 (US)
星等 :
--
该卫星已列入 空间交会检测服务 Space Conjunction Data Service (SCDS) ,当前飞行风险评估等级: 无高风险
轨道信息
数据来源 国际轨道数据
星历时间: 2026-09-11T21:09:18+0800
13小时前
查看轨道信息
半长轴: 7007.683km
偏心率: 0.0000837
轨道倾角: 51.901°
近地点辐角 71.490°
升交点赤经 186.257°
平近点角 288.615°
近地点: 628.959km
远地点: 630.133km
周期: 97.302分钟
每日圈数: 14.799299
详细信息
使用方式:
暂无
2D轨道图
3D轨道图
轨道高度分析图
轨道倾角分析图
轨道综合分析图
查看轨道综合分析图
交会数据列表
事件ID 空间交会对象 最接近时刻(TCA) 交会距离 交会风险概率(CRP) 交会风险指数(CRI) 操作
CDM_260913-055003-544006-482821
2026-09-13T
05:50:58+0000
2.620 km
极远距离
1.489794E-6 低风险 0.38
与全量物体交会距离演化趋势
与全量物体交会风险概率演化趋势